This is the latest recevied weather packets stored in our database for station/object M0UPS-13. If no packets are shown the sender has not sent any weather packets the latest 1 day(s).
| Time | Temp. | Humidity | Pressure | Rain* | Wind** | Luminosity | Snow |
|---|---|---|---|---|---|---|---|
| 1778020202 | 11.67° C | 72% | 1013.3 hPa | 0 mm | 0.89 m/s, 74° | 0 W/m² | - |
| 1778019902 | 11.67° C | 72% | 1013.5 hPa | 0 mm | 2.24 m/s, 128° | 0 W/m² | - |
| 1778019602 | 11.67° C | 74% | 1013.4 hPa | 0 mm | 1.79 m/s, 35° | 0 W/m² | - |
| 1778019302 | 11.67° C | 75% | 1013.3 hPa | 0 mm | 1.34 m/s, 359° | 0 W/m² | - |
| 1778019002 | 11.67° C | 75% | 1013.1 hPa | 0 mm | 0.45 m/s, 343° | 0 W/m² | - |
| 1778018702 | 12.22° C | 75% | 1013.3 hPa | 0 mm | 0.45 m/s, 10° | 0 W/m² | - |
| 1778018402 | 12.22° C | 74% | 1013.3 hPa | 0 mm | 0.89 m/s, 52° | 0 W/m² | - |
| 1778018102 | 12.22° C | 71% | 1013.2 hPa | 0 mm | 0.89 m/s, 118° | 0 W/m² | - |
| 1778017802 | 12.22° C | 68% | 1013.3 hPa | 0 mm | 0.45 m/s, 262° | 0 W/m² | - |
| 1778017502 | 12.78° C | 66% | 1013.2 hPa | 0 mm | 0.45 m/s, 333° | 0 W/m² | - |
| 1778017202 | 12.78° C | 66% | 1013.1 hPa | 0 mm | 0.89 m/s, 95° | 0 W/m² | - |
| 1778016903 | 12.78° C | 66% | 1012.9 hPa | 0 mm | 0.89 m/s, 32° | 0 W/m² | - |
| 1778016602 | 12.22° C | 66% | 1013 hPa | 0 mm | 0.45 m/s, 308° | 0 W/m² | - |
| 1778016302 | 12.22° C | 67% | 1012.9 hPa | 0 mm | 0 m/s | 0 W/m² | - |
| 1778016002 | 12.22° C | 67% | 1012.9 hPa | 0 mm | 0 m/s | 0 W/m² | - |
| 1778015702 | 12.22° C | 67% | 1013 hPa | 0 mm | 0.89 m/s, 285° | 0 W/m² | - |
| 1778015402 | 12.22° C | 68% | 1013 hPa | 0 mm | 0.45 m/s, 223° | 0 W/m² | - |
| 1778015102 | 12.22° C | 68% | 1012.9 hPa | 0 mm | 0.89 m/s, 71° | 0 W/m² | - |
| 1778014802 | 12.22° C | 68% | 1012.9 hPa | 0 mm | 0.45 m/s, 193° | 0 W/m² | - |
| 1778014502 | 12.78° C | 68% | 1012.9 hPa | 0 mm | 0.89 m/s, 167° | 0 W/m² | - |
| 1778014203 | 12.78° C | 67% | 1013 hPa | 0 mm | 0.45 m/s, 311° | 0 W/m² | - |
| 1778013902 | 12.78° C | 65% | 1012.9 hPa | 0 mm | 1.34 m/s, 117° | 0 W/m² | - |
| 1778013602 | 13.33° C | 64% | 1012.9 hPa | 0 mm | 0.89 m/s, 58° | 0 W/m² | - |
| 1778013302 | 13.33° C | 63% | 1012.6 hPa | 0 mm | 0.89 m/s, 94° | 0 W/m² | - |
| 1778013002 | 13.33° C | 62% | 1012.8 hPa | 0 mm | 0.45 m/s, 18° | 0 W/m² | - |
* Rain latest hour (hover to see other rain measurements)
** Current wind speed in m/s (hover to see current wind gust speed)